Wind_Speed
25 24 23 18 16 17 18 19 18 16 16 16 16 15 13 14 16 16 14 14 14 14 14 14 14 15 15 15 15 15 14 15 17 18 18 18 19 20 21 22 23 23 21 19 18 17 16 15 14 13 12 13 13 12 11 11 11 11 10 10 10 10 9 8 8 9 9 9 8 7 8 7 6 5 7 7 7 8 9 8 9 10 11 11 11
23 24 25 22 18 16 17 18 20 19 18 18 17 17 15 14 15 16 14 13 14 14 13 13 13 13 12 12 11 12 13 14 16 17 17 18 19 20 21 22 24 24 23 21 19 17 17 16 15 14 13 14 14 12 11 11 11 10 10 10 10 10 9 7 7 8 8 9 10 10 10 8 5 6 8 7 8 8 8 8 8 9 10 11 11
23 23 24 24 21 18 17 18 21 21 20 18 17 17 17 15 16 16 14 13 13 13 12 12 11 11 11 11 10 10 12 13 14 16 17 18 19 20 21 22 24 25 25 23 21 19 18 17 16 15 14 14 14 13 12 11 10 10 10 9 10 10 8 6 6 7 8 9 11 11 12 12 10 11 9 7 8 9 8 9 9 10 11 11 11
24 23 23 24 23 21 19 20 21 21 20 19 18 18 18 17 16 16 14 13 13 12 11 11 11 11 12 12 11 11 11 12 14 15 17 18 19 21 21 21 23 26 26 25 23 21 19 18 17 17 16 14 15 15 13 11 10 10 9 8 9 8 6 6 5 6 7 8 10 10 11 10 11 15 13 8 8 8 9 10 10 11 11 11 11
22 23 24 24 24 23 21 20 21 20 20 20 19 19 18 17 16 16 14 13 13 13 12 11 12 12 13 14 14 14 14 15 16 17 18 19 20 21 21 21 22 25 26 26 25 23 21 19 18 19 18 16 15 15 13 11 10 10 9 8 8 7 7 6 4 4 6 8 10 9 7 7 9 15 16 10 8 8 10 11 10 10 10 10 11
21 22 23 24 24 23 21 21 22 22 20 20 20 19 18 16 16 15 14 13 13 13 13 13 13 13 14 15 16 16 16 17 17 18 18 20 21 21 21 20 21 24 25 26 26 25 23 21 20 20 19 17 16 16 15 13 11 10 9 9 8 8 8 7 5 5 7 8 10 9 6 7 10 13 14 13 11 8 9 11 10 10 10 10 11
22 22 24 25 25 24 22 21 22 22 21 20 20 19 18 17 16 15 14 14 14 14 14 13 14 14 15 16 17 17 17 16 15 16 17 19 20 21 21 21 21 22 24 25 26 26 25 24 22 21 20 19 17 16 15 14 12 10 10 10 9 9 9 8 7 7 8 9 10 9 7 8 10 11 11 14 14 11 10 11 11 11 11 11 12
22 23 23 24 25 24 22 19 20 21 20 20 20 19 19 18 16 15 14 14 15 15 15 14 14 14 14 15 16 17 17 15 13 14 15 17 19 21 21 22 22 22 23 23 24 25 26 25 24 22 21 20 19 17 15 14 13 12 11 10 10 9 9 8 8 8 9 10 10 8 8 9 9 10 10 10 12 15 14 13 13 12 11 12 12
22 22 22 23 24 23 21 19 19 20 20 21 20 19 19 18 17 16 15 15 15 16 16 15 14 14 14 14 15 15 15 15 14 14 14 16 18 20 21 22 22 22 22 22 23 24 25 24 24 23 21 20 20 18 15 14 14 13 12 11 10 10 10 9 9 8 9 10 10 9 8 8 8 8 8 9 11 13 15 15 16 14 12 12 12
21 22 22 23 22 21 20 19 20 20 21 21 21 21 20 18 17 17 17 16 16 16 16 15 14 14 14 14 14 13 14 14 14 14 15 16 18 20 21 22 22 22 21 22 22 23 24 24 24 23 21 20 20 19 16 14 14 13 12 12 11 11 11 10 9 8 8 9 9 9 9 9 8 7 7 9 11 12 13 15 16 16 14 13 12
19 21 22 22 22 21 20 20 20 20 21 21 21 21 21 19 18 19 19 17 17 17 16 15 15 14 14 13 12 12 12 14 14 14 15 17 18 19 20 21 22 22 21 21 22 23 23 24 24 23 21 20 19 19 18 16 14 13 12 12 12 11 11 10 9 8 8 8 8 9 9 9 9 9 9 10 12 12 13 15 14 14 13 12 12
18 18 19 20 21 21 21 21 21 20 22 23 23 22 21 20 19 20 20 17 15 17 16 15 14 13 12 12 11 11 11 13 14 14 15 17 19 19 20 21 21 22 22 22 22 22 23 24 24 23 21 20 19 18 18 17 15 14 13 12 11 11 11 11 10 10 9 9 10 9 9 9 8 9 10 11 11 12 13 15 14 12 11 11 11
18 18 18 18 19 21 21 22 22 21 23 24 24 22 21 21 20 19 18 15 14 15 14 14 13 12 11 11 9 9 10 12 13 14 15 17 19 20 21 22 22 22 22 22 22 22 23 24 24 23 21 19 18 18 19 18 17 16 15 13 13 13 13 12 12 11 10 10 12 11 10 10 9 8 9 10 11 12 13 14 12 11 11 11 10
16 16 17 17 18 19 20 21 22 22 22 23 21 19 20 21 21 19 18 15 12 12 13 12 11 10 10 9 8 8 9 11 13 13 14 16 18 20 21 22 23 23 22 22 21 21 22 22 22 22 20 18 18 18 19 19 18 18 17 15 14 15 15 14 13 12 12 12 13 13 12 10 9 8 9 10 10 11 12 12 11 11 11 11 11
12 12 13 14 15 16 17 18 19 19 19 20 19 18 19 21 21 20 18 15 11 10 11 11 10 9 9 8 8 8 9 10 12 13 14 15 17 19 20 22 23 24 23 22 20 20 20 20 20 21 20 18 18 19 20 19 18 18 17 16 16 16 16 15 14 14 13 13 14 14 13 11 10 9 9 10 10 10 10 10 11 12 12 12 12
9 9 9 10 11 12 14 14 16 16 15 15 16 17 19 20 20 20 17 13 11 10 11 10 9 10 9 9 9 9 10 11 12 13 14 15 16 18 19 21 23 23 23 22 20 19 19 19 20 20 19 19 19 19 20 19 18 17 17 16 16 16 16 15 14 14 14 14 15 14 13 12 10 10 10 10 10 10 9 9 10 11 12 13 13
7 7 7 7 6 7 8 10 12 13 12 12 13 14 15 16 17 16 14 12 11 11 12 12 12 12 11 10 10 11 11 11 12 13 14 14 15 17 18 20 22 23 23 21 21 20 19 19 20 20 20 20 20 20 20 19 18 17 17 16 16 16 16 16 15 15 15 15 15 14 13 12 11 10 10 10 10 9 8 9 9 10 10 10 11
8 8 8 7 6 5 5 6 8 9 9 9 10 11 11 11 13 14 13 13 12 12 12 13 13 13 12 11 11 11 11 12 12 12 13 15 16 17 17 18 20 22 22 21 21 21 20 20 20 21 21 21 21 20 18 17 17 18 17 16 15 15 16 16 16 16 15 15 15 14 13 12 12 11 11 10 10 10 10 10 10 9 9 8 9
9 8 7 6 6 5 5 5 5 6 6 6 7 8 9 9 11 13 13 13 13 13 13 13 14 13 13 12 12 12 12 12 12 12 13 15 16 17 17 18 18 20 21 21 21 21 20 20 20 21 21 21 21 19 17 15 16 17 18 17 16 15 16 16 15 15 15 15 16 14 13 13 13 13 12 12 12 12 12 12 11 10 9 9 9
10 9 7 7 7 7 6 6 5 5 5 5 5 6 6 8 10 11 12 13 13 13 13 13 14 14 14 14 14 14 14 13 13 13 14 15 16 17 17 17 17 18 19 20 20 20 19 19 20 21 21 21 20 19 17 15 15 16 16 16 15 14 15 14 14 14 14 14 15 15 15 14 14 14 14 13 13 13 13 13 13 12 11 10 11
10 10 9 9 9 8 6 5 5 5 5 5 5 5 6 7 9 11 13 13 14 13 13 13 14 15 16 16 16 16 16 16 15 15 15 15 16 17 18 18 18 18 19 19 20 20 19 20 20 21 20 19 19 19 17 16 16 16 16 15 14 14 14 14 13 13 12 13 14 15 15 15 15 15 15 15 15 14 14 14 15 15 13 11 12
10 11 10 9 9 7 4 3 3 4 4 4 4 4 5 6 8 9 11 12 13 13 13 14 15 16 18 18 18 18 18 18 17 16 15 15 16 17 18 18 19 20 20 20 21 20 20 20 20 20 20 19 19 19 18 17 16 16 16 16 16 15 15 14 13 13 12 12 13 15 15 14 15 16 15 15 15 15 16 16 16 16 14 13 14
11 10 9 8 7 6 4 3 3 4 4 4 4 4 5 6 7 7 8 9 10 10 11 13 14 16 18 18 19 19 19 19 18 18 17 16 15 16 17 18 19 19 20 21 21 21 21 21 20 20 20 19 19 19 19 19 18 17 17 17 17 16 16 15 15 13 12 12 12 14 15 15 16 16 16 15 16 16 16 16 16 15 14 14 15
12 10 9 7 6 5 4 3 3 4 4 5 5 6 7 8 9 10 11 11 11 11 11 11 12 13 16 18 19 19 20 20 19 19 19 18 16 16 17 18 19 18 19 19 20 20 21 21 21 20 20 21 20 20 20 20 19 18 18 17 17 17 17 17 16 14 12 12 12 14 15 15 16 16 16 15 16 16 16 16 16 15 15 16 16
14 12 10 9 7 5 4 3 3 3 4 5 6 7 8 9 10 11 12 12 13 12 11 11 11 10 12 15 17 18 19 19 20 20 20 19 18 18 18 19 19 19 19 19 19 19 20 21 22 22 21 22 22 21 21 20 19 19 19 18 18 18 18 18 17 16 14 13 13 14 14 15 15 15 15 15 15 15 15 15 15 15 16 16 16
16 14 12 10 8 6 5 4 3 3 5 6 7 8 9 10 10 11 12 12 12 13 12 12 11 11 10 11 13 14 15 16 18 19 20 20 19 19 19 20 20 20 20 20 20 20 20 21 22 22 22 23 23 22 21 20 20 19 19 19 19 19 19 19 20 19 17 16 15 15 15 15 16 15 14 14 14 14 14 15 15 16 16 16 15
18 16 14 12 10 7 6 4 3 4 5 7 8 9 10 10 11 12 12 12 12 13 13 12 12 11 11 11 11 12 13 15 17 18 19 20 20 20 20 20 21 21 21 21 21 21 20 21 21 21 22 23 24 24 23 22 21 20 20 19 19 19 19 19 20 19 17 17 16 16 16 16 16 15 14 14 15 15 15 15 15 16 16 15 15
19 17 15 14 11 8 7 5 4 5 6 7 8 9 9 10 11 11 11 12 13 13 13 13 13 12 12 11 11 11 12 14 16 18 18 18 19 21 21 21 22 23 23 22 22 22 21 21 20 20 20 21 23 24 25 24 22 22 21 21 20 20 19 19 18 17 16 16 16 16 17 17 17 15 15 15 15 16 16 16 16 16 15 15 15
21 19 16 14 11 9 7 5 6 7 7 8 9 9 9 9 10 10 11 11 12 13 13 13 13 13 13 13 13 12 12 13 14 17 18 18 18 18 20 22 23 24 23 23 23 23 23 23 22 21 21 21 22 24 25 24 23 23 23 23 22 22 21 20 19 18 17 17 17 17 17 17 17 16 16 16 16 16 16 16 16 15 15 15 15
21 19 17 14 11 9 7 7 7 7 7 8 9 10 10 10 10 11 11 11 11 12 13 13 14 14 15 15 15 15 14 13 13 14 16 18 18 18 18 20 23 25 24 24 24 25 24 24 24 23 23 23 23 24 24 24 24 23 23 24 24 24 24 23 22 21 20 19 18 18 18 18 18 17 17 16 15 15 15 15 15 15 15 16 16
21 19 17 14 11 10 9 8 8 7 8 9 10 11 11 11 11 10 11 11 11 11 11 12 13 14 16 16 16 16 16 16 15 15 15 16 18 20 20 20 22 24 26 26 25 26 26 25 25 25 25 25 25 25 25 25 25 24 24 25 25 25 25 26 25 25 23 22 21 20 19 19 19 19 18 18 17 17 17 15 15 15 16 16 17
22 19 16 14 12 11 10 9 8 7 8 9 10 11 12 11 10 9 10 10 11 11 11 12 12 13 14 16 17 18 18 18 18 17 16 16 17 19 21 22 22 23 25 26 27 27 27 27 27 27 27 26 26 25 25 25 26 26 26 26 26 26 27 27 27 26 26 25 24 23 22 21 21 21 21 21 20 19 18 16 16 17 17 17 17
21 18 15 13 12 11 10 9 7 7 8 9 10 11 11 10 9 9 10 11 12 12 12 12 12 13 14 15 16 18 18 19 20 19 19 19 19 19 20 21 22 23 24 26 27 28 29 29 30 30 29 28 27 26 25 25 26 27 27 28 29 29 29 29 29 27 27 26 26 25 25 24 23 23 23 24 23 21 19 18 18 18 17 17 16
19 17 14 12 11 10 9 8 7 7 8 9 10 9 9 9 9 10 11 12 12 12 12 13 14 14 15 15 17 18 19 19 20 21 21 21 21 21 21 21 21 22 24 26 27 28 30 31 32 32 31 30 28 27 26 26 27 28 28 29 30 29 29 29 29 29 28 27 27 26 26 25 25 26 26 26 25 24 21 21 21 20 18 17 17
19 16 14 12 11 10 9 7 6 6 7 8 7 6 7 8 8 9 11 11 12 13 14 15 16 17 17 17 17 18 19 19 20 21 22 22 23 23 24 23 22 21 22 24 26 28 30 31 31 32 33 33 31 30 28 28 29 29 29 29 29 30 29 28 29 29 30 29 28 28 27 28 28 28 28 28 28 26 23 22 22 22 21 19 18
17 14 12 10 10 9 7 5 4 5 6 5 5 5 6 8 9 9 11 11 12 14 15 16 17 17 17 17 17 17 18 18 18 19 21 22 23 24 24 25 25 25 24 24 25 26 28 30 30 31 33 34 34 34 33 32 30 31 31 31 31 31 31 31 30 30 31 31 31 30 29 30 31 30 28 28 28 27 25 23 22 22 22 20 18
15 11 9 9 9 8 6 4 4 4 4 4 4 6 8 8 9 9 11 12 13 14 15 15 15 15 15 15 15 16 16 16 17 17 19 21 23 24 25 25 25 26 27 26 25 25 25 27 28 29 31 33 34 34 35 34 33 31 31 31 32 33 34 34 33 32 32 32 32 32 31 32 33 31 28 27 27 28 27 24 23 22 22 20 18
14 11 11 11 10 8 6 4 4 4 3 3 5 8 9 9 8 9 10 11 12 11 11 12 13 13 13 13 12 12 13 14 15 16 16 18 20 22 25 25 25 26 26 26 26 25 24 24 25 26 28 30 32 32 33 34 34 34 32 31 31 33 35 36 35 34 34 33 33 34 35 35 35 34 31 28 27 28 29 27 26 25 23 20 17
13 11 11 12 10 8 5 4 4 4 3 5 7 8 8 7 6 7 9 8 8 9 10 10 10 11 11 10 10 9 10 11 12 13 14 15 16 17 19 21 23 23 24 24 24 23 22 23 24 25 26 28 29 30 31 32 33 34 35 34 32 31 33 36 37 37 36 35 35 36 37 38 38 36 33 31 29 30 31 29 27 25 22 19 16
14 12 12 11 9 6 4 4 5 4 4 6 7 7 6 5 4 5 7 7 8 11 10 8 8 9 9 9 10 9 9 10 10 10 10 11 13 13 13 16 18 18 19 21 22 21 21 22 23 24 25 26 27 28 29 30 32 33 34 35 35 33 33 34 36 37 38 38 37 37 38 39 40 38 36 34 32 33 32 30 27 25 20 16 14
14 15 13 11 8 6 5 5 5 4 4 6 6 5 4 4 4 4 6 8 10 11 9 8 8 8 8 9 10 9 9 9 9 9 9 9 10 11 10 12 14 13 13 15 18 19 19 20 20 22 24 24 25 25 26 27 29 31 32 34 36 37 37 36 35 36 38 37 38 39 40 40 40 39 38 36 34 34 32 28 26 23 19 16 14
16 15 13 10 8 7 6 6 4 3 5 6 5 4 3 4 4 4 7 10 11 10 8 8 8 8 8 8 9 8 8 9 8 9 9 9 9 9 8 9 10 10 9 11 12 14 16 18 19 20 21 22 23 24 24 25 26 27 29 31 33 36 38 38 36 36 36 35 36 39 42 42 41 39 38 36 35 34 33 31 28 23 18 17 15
17 15 12 9 7 7 6 5 4 4 5 5 4 3 2 3 4 5 7 9 9 8 7 8 8 8 7 7 8 8 8 9 9 8 8 8 9 8 8 8 9 8 10 13 13 13 14 17 18 18 19 21 23 24 24 24 24 25 26 28 29 31 32 34 35 35 35 35 35 38 41 41 38 35 36 38 38 38 36 33 31 27 23 20 18
16 13 10 8 7 7 6 5 4 4 5 4 3 2 3 4 5 5 5 6 6 6 7 8 8 7 7 7 8 9 9 9 9 8 6 6 7 8 7 7 8 8 9 12 13 13 13 15 17 18 19 21 23 23 24 24 23 23 24 26 28 28 28 28 29 30 32 33 33 34 37 39 37 34 33 34 36 43 47 41 35 33 30 26 25
15 12 9 8 8 6 5 5 5 5 5 3 2 2 4 5 4 3 3 3 4 5 6 7 7 7 7 8 9 10 10 8 9 9 8 7 7 8 7 4 5 7 8 9 9 10 10 11 14 15 17 18 20 21 21 21 19 18 19 21 23 24 24 23 22 24 27 30 32 32 31 30 31 35 38 30 18 22 35 40 38 38 35 33 32
15 13 11 9 8 7 6 5 5 5 4 3 2 3 4 4 3 2 2 2 3 4 4 5 6 7 8 9 10 10 9 8 9 10 10 11 11 11 10 8 5 2 3 5 6 7 8 9 10 11 12 13 14 15 14 14 13 12 12 12 13 14 16 16 18 21 23 22 24 25 20 13 13 23 34 31 18 18 21 24 30 35 35 34 34
15 12 11 9 8 8 7 6 6 5 4 3 2 3 3 2 1 2 2 2 2 3 3 5 7 8 9 9 9 9 9 9 10 11 12 13 13 14 14 14 13 11 7 3 2 3 4 5 5 6 6 7 7 8 8 9 9 8 8 7 6 6 9 11 13 14 12 6 2 1 2 7 13 15 18 24 27 25 23 24 24 23 23 26 30
14 12 11 9 8 7 7 6 6 5 4 4 3 2 1 0 2 4 4 3 1 2 5 7 8 9 9 9 8 8 9 9 10 11 12 12 13 14 15 16 18 17 16 14 12 10 8 8 7 7 6 5 7 9 10 11 11 10 8 6 3 1 3 4 5 5 7 11 17 20 21 22 24 25 25 27 30 29 26 25 24 21 18 19 23
14 13 10 8 7 8 7 6 6 4 4 4 3 2 2 1 3 6 7 6 3 4 6 8 9 11 10 9 8 9 9 10 11 11 12 14 16 17 18 20 22 24 24 23 22 21 21 19 18 16 14 14 17 18 17 16 15 16 17 17 15 13 11 12 13 16 20 24 27 29 29 29 29 29 30 31 32 32 32 31 28 25 22 19 18
13 12 11 9 8 8 7 6 5 4 5 5 4 3 3 1 3 7 9 8 5 4 7 9 10 11 10 8 9 10 11 11 12 13 15 17 19 19 20 22 24 26 27 26 26 26 25 24 25 25 24 24 25 24 20 19 22 24 25 25 23 21 20 20 21 22 25 27 28 30 32 32 30 30 31 32 32 31 32 32 29 26 22 18 16
13 12 11 10 10 9 7 6 5 4 5 7 6 4 3 1 2 4 7 8 6 4 8 10 11 11 9 9 10 12 12 12 13 15 16 19 21 22 23 24 25 26 26 26 26 27 26 25 27 28 29 30 28 26 24 24 24 24 22 20 21 21 22 24 23 21 23 26 27 30 34 34 32 31 32 32 31 31 31 30 27 23 19 15 13
Wind_Direction
213 214 213 216 224 230 237 237 229 230 233 224 216 214 211 216 224 228 225 221 220 216 214 217 220 222 225 227 229 228 228 229 225 221 220 218 218 219 219 218 217 217 219 220 219 218 220 222 224 231 237 241 241 243 242 243 251 258 264 269 272 277 283 287 290 298 311 315 313 311 327 342 346 6 2 347 338 328 326 324 319 320 327 335 331
209 212 212 214 219 225 232 234 231 232 233 226 221 221 219 216 220 224 223 220 221 219 220 226 230 231 234 235 238 238 235 233 231 228 227 225 222 221 221 220 219 219 221 224 222 222 225 228 230 233 241 246 246 245 243 246 255 262 266 268 273 281 286 287 292 304 319 328 331 329 336 352 0 4 7 11 9 358 348 340 337 337 339 345 339
208 211 213 214 217 223 231 233 232 233 235 233 228 226 224 221 220 220 218 219 218 217 221 229 237 241 243 243 243 243 241 238 236 236 236 233 228 224 223 222 221 220 223 226 226 226 228 234 235 237 242 249 251 251 250 252 257 263 266 268 275 282 286 288 291 305 323 332 338 339 339 346 353 357 8 35 27 15 9 358 356 356 351 353 351
210 214 217 216 216 221 230 231 229 229 231 232 229 226 225 223 221 218 214 215 214 213 217 224 230 238 242 244 241 238 236 235 236 237 238 237 231 226 225 223 222 221 223 227 230 229 231 238 241 241 245 250 254 255 253 254 257 262 266 271 278 280 282 288 292 309 328 337 341 338 335 340 346 347 352 20 31 23 21 11 4 359 353 355 360
218 219 221 220 219 224 231 232 229 228 228 228 224 222 224 225 223 220 216 215 213 211 216 219 221 226 231 235 236 232 226 227 231 231 231 232 231 228 226 224 223 222 223 227 230 231 233 238 243 244 245 248 254 257 255 255 258 261 266 269 274 279 286 295 308 328 333 339 340 332 327 334 336 338 341 353 14 24 24 17 9 359 355 356 2
225 226 224 223 223 226 232 234 232 232 231 227 223 224 228 229 225 222 220 218 215 214 217 219 218 222 229 233 235 233 231 232 235 234 230 228 229 229 227 224 224 222 224 227 230 232 233 236 242 245 244 245 252 258 256 258 260 261 263 261 264 276 288 298 314 326 324 330 333 322 311 315 322 333 336 335 345 9 25 20 13 6 2 0 4
229 229 228 227 227 227 232 236 235 234 232 227 225 228 230 229 225 223 223 221 218 217 219 220 219 223 232 239 242 242 242 246 250 247 241 234 229 228 227 225 225 225 225 227 229 232 233 236 242 245 242 241 249 256 257 258 258 257 258 257 259 272 286 298 309 318 320 324 326 317 301 297 308 322 328 331 335 342 1 16 16 15 12 2 2
231 230 230 229 229 229 233 237 237 234 231 227 226 228 228 227 226 224 222 222 221 221 223 223 221 226 235 242 245 247 248 252 255 253 248 241 233 228 227 226 227 228 227 227 229 231 233 236 240 244 241 239 244 252 258 257 254 253 255 256 259 269 281 292 305 316 320 322 320 311 299 293 296 305 317 331 335 331 338 359 9 14 20 8 359
233 233 233 232 230 230 234 238 238 236 229 226 226 227 227 227 227 224 221 221 222 224 228 228 226 231 238 242 245 247 250 252 252 249 242 239 236 231 228 228 227 228 228 228 229 229 232 235 238 240 240 238 240 247 255 255 252 254 255 255 258 263 275 287 299 309 313 316 315 308 301 296 292 293 304 325 334 330 332 345 355 1 11 11 2
233 236 237 237 233 232 236 236 237 238 231 226 227 227 228 230 228 225 221 220 224 226 228 230 229 233 240 242 244 247 248 249 248 244 236 232 234 232 228 227 226 226 227 229 230 230 231 234 235 237 238 237 238 242 249 252 252 255 255 255 256 260 271 282 291 300 306 309 310 309 309 305 298 291 298 317 325 326 327 334 346 350 355 4 5
230 235 237 238 236 236 237 234 234 237 233 229 227 227 230 232 230 228 223 219 227 230 227 227 228 232 241 244 246 249 248 247 245 241 235 231 229 228 226 225 226 226 227 229 230 230 231 233 233 235 237 236 236 239 244 249 251 252 253 254 254 258 268 277 284 294 301 304 307 308 309 306 299 295 301 311 315 319 322 325 336 344 349 0 6
227 232 234 235 233 232 232 231 231 233 233 231 229 231 234 235 232 232 228 221 228 234 224 221 225 229 238 242 245 251 250 247 242 236 233 232 230 227 224 224 226 226 227 228 229 230 231 231 231 233 236 236 236 237 241 247 248 246 247 250 252 256 264 272 280 290 297 303 310 309 302 300 296 296 302 306 311 316 317 319 328 338 346 358 5
221 225 230 232 231 231 232 232 232 233 233 232 232 234 236 237 235 237 240 231 228 235 225 217 224 228 234 242 245 250 253 247 239 233 231 231 231 230 227 226 226 226 226 227 229 231 232 231 230 233 237 238 237 238 240 244 246 244 244 246 250 256 264 271 277 285 292 299 307 308 299 293 291 295 298 301 308 313 314 316 323 334 341 350 359
216 220 226 230 232 234 236 237 237 235 233 232 235 238 236 239 241 245 252 245 229 237 234 219 223 230 233 242 244 246 253 249 241 236 232 229 228 230 231 231 230 229 229 231 233 234 233 232 233 235 237 237 237 238 239 241 244 245 245 247 251 256 263 268 273 278 285 292 301 305 297 286 282 288 293 297 305 310 313 317 322 331 336 343 351
209 216 222 228 233 236 235 237 239 236 232 232 239 245 243 243 248 252 256 252 239 246 246 228 223 229 233 242 246 246 249 249 243 240 236 232 227 227 230 232 232 232 233 234 236 236 236 236 236 237 236 235 236 238 238 240 243 245 245 248 252 256 261 266 270 273 280 289 298 301 294 282 280 285 287 294 302 305 311 318 324 330 332 336 343
189 198 207 217 226 233 234 235 235 233 234 239 243 248 246 246 251 252 251 253 253 255 257 247 230 227 234 242 246 246 245 244 241 238 236 232 228 226 228 230 231 232 233 235 236 237 238 239 239 239 236 236 237 238 238 238 240 243 244 247 252 257 263 268 271 272 278 288 295 297 290 280 280 284 286 294 299 299 307 316 321 324 324 327 335
162 166 171 182 193 206 220 227 228 230 238 245 244 243 245 247 249 249 249 256 261 259 259 255 241 231 234 241 247 249 248 245 242 239 236 232 226 224 225 227 229 230 231 234 237 238 239 239 241 240 238 238 238 238 239 239 240 242 243 246 251 257 264 269 271 272 278 287 293 295 289 279 278 281 283 291 294 293 298 306 312 313 310 315 324
151 151 150 152 154 161 180 199 212 222 233 239 240 240 242 246 245 245 250 260 267 264 257 253 248 243 241 245 252 254 251 248 243 240 238 233 228 224 224 225 227 228 229 232 235 238 239 239 241 242 240 240 239 239 240 241 241 243 243 246 251 256 262 266 268 270 277 286 290 292 287 279 275 275 278 284 287 287 291 297 305 306 300 300 306
155 152 147 142 139 142 155 174 191 204 214 219 227 234 236 239 239 240 249 258 264 264 257 251 248 247 247 249 253 255 252 247 242 240 239 236 232 229 227 225 225 228 229 229 231 234 236 237 239 242 242 241 241 240 241 241 242 243 244 247 250 254 259 262 263 268 276 283 285 286 284 278 273 271 272 277 282 284 288 293 301 303 298 295 297
155 154 150 144 138 141 147 158 175 188 201 209 214 223 227 230 234 237 245 255 262 264 262 258 254 252 252 250 250 254 255 250 243 238 237 235 233 232 230 226 224 226 228 230 231 232 233 234 236 241 243 242 241 239 237 238 241 243 243 244 247 251 257 260 263 266 274 280 280 280 281 278 275 271 270 274 278 281 286 292 297 298 295 293 294
153 154 154 150 145 148 152 158 169 177 186 197 205 213 218 225 234 240 245 251 257 262 263 262 260 258 257 253 250 251 253 253 248 242 240 238 234 232 231 229 226 226 228 232 234 233 232 233 235 239 240 241 240 236 233 235 239 242 243 244 246 251 256 260 263 265 269 275 276 277 278 277 275 271 270 271 273 277 283 289 293 292 288 287 291
157 157 158 159 159 162 169 180 193 197 198 206 217 226 231 238 245 251 254 257 261 265 267 265 262 260 259 256 251 247 248 250 249 247 244 242 239 236 233 232 229 228 229 231 233 234 234 234 235 236 237 239 238 233 229 233 239 243 245 248 250 252 255 259 264 267 269 270 272 274 275 275 273 271 270 270 271 276 281 287 290 288 285 285 291
167 168 168 170 174 182 196 215 233 240 243 253 260 266 275 281 283 278 274 276 281 283 280 274 268 265 262 259 254 248 245 245 246 247 245 242 243 242 240 238 235 230 229 229 229 230 232 234 235 235 235 237 236 231 229 233 239 243 247 250 253 256 259 260 264 269 270 267 268 271 273 273 273 272 272 271 272 275 280 284 287 286 284 285 290
178 182 186 186 191 201 212 230 243 243 251 262 268 277 287 289 289 288 285 288 292 294 290 284 280 274 267 263 260 255 249 244 243 244 244 243 243 243 243 243 241 237 231 228 227 228 231 234 236 238 239 237 234 231 231 235 239 244 249 252 256 261 265 267 268 269 269 267 270 274 275 274 272 272 273 274 276 278 279 281 282 281 280 282 287
187 191 194 194 199 211 225 242 248 252 262 274 284 291 295 293 290 291 291 291 294 294 290 286 288 290 279 269 265 263 259 252 247 246 246 244 243 243 242 241 241 241 236 232 231 232 234 237 239 243 243 239 234 232 233 236 241 247 252 255 259 262 267 270 272 271 267 266 273 278 277 273 270 271 274 277 280 280 280 278 277 275 275 279 284
191 193 194 195 201 216 235 244 249 272 286 292 298 300 300 300 297 295 293 291 291 291 291 289 290 296 295 284 275 270 266 259 255 254 252 248 245 243 241 238 237 239 239 238 237 234 234 237 241 245 246 242 237 235 236 238 242 249 254 256 259 261 265 269 273 273 266 262 269 276 275 271 269 272 276 278 278 277 276 275 272 271 273 277 282
192 192 194 198 203 217 231 234 246 276 282 284 292 296 297 298 299 298 294 289 287 286 288 289 291 293 295 295 290 282 272 263 257 255 254 251 247 243 241 238 236 237 238 239 238 236 234 236 239 243 246 244 241 239 239 240 243 248 253 256 257 259 262 265 269 269 261 256 262 268 267 266 265 269 273 274 272 270 271 271 271 272 274 277 280
193 194 197 202 209 219 219 220 252 272 274 284 295 299 299 299 299 300 297 292 288 286 285 287 289 290 290 290 291 289 281 271 262 257 255 254 249 245 244 241 238 237 237 236 236 235 235 237 240 242 244 246 246 244 244 245 247 250 253 255 256 258 260 262 263 260 254 253 257 260 261 260 260 263 269 271 270 269 270 272 272 272 274 276 278
194 198 202 208 215 221 215 227 256 266 275 294 305 306 304 301 298 296 295 295 293 290 289 289 289 289 288 287 287 287 286 280 271 262 258 256 253 250 248 245 241 239 239 237 236 236 238 240 242 243 244 246 247 246 245 246 250 253 255 256 256 258 260 263 263 258 253 254 256 259 260 258 258 263 269 270 269 270 272 272 270 271 273 274 276
199 202 207 213 218 219 220 240 254 261 279 299 309 313 311 305 300 298 297 297 296 293 292 290 289 288 287 288 287 285 284 282 276 270 263 259 256 255 254 250 244 241 241 241 240 239 241 244 245 246 247 247 247 246 245 247 250 253 255 255 256 258 260 264 265 262 258 255 256 260 263 260 259 264 267 267 268 273 275 271 267 268 269 271 274
202 205 209 216 218 218 225 239 249 262 285 301 308 312 310 304 303 304 303 303 302 300 297 291 288 285 284 285 284 283 282 281 278 276 272 265 260 256 255 252 248 244 242 243 244 244 244 246 248 249 250 251 252 251 250 250 251 252 253 255 257 259 260 263 265 264 262 260 258 259 260 260 260 262 264 265 268 276 278 271 264 263 265 269 275
203 206 211 217 219 222 229 237 248 268 288 301 307 311 309 305 307 308 307 308 307 304 301 296 291 286 283 282 281 280 280 278 277 276 273 270 266 261 256 253 251 249 246 244 245 245 246 247 249 251 253 255 256 257 258 257 255 253 254 256 259 260 262 262 262 262 263 263 263 260 258 258 259 261 263 263 265 271 273 266 259 259 263 271 279
205 209 215 220 223 226 231 237 250 272 288 301 308 313 314 310 309 309 307 308 307 305 303 299 295 291 285 280 278 277 277 277 276 274 272 270 270 268 264 259 255 252 250 247 246 245 245 246 248 251 254 257 258 259 260 261 259 257 255 257 260 263 264 262 260 260 261 262 263 262 260 258 257 258 259 261 261 263 265 264 260 259 265 274 278
207 213 219 222 222 223 226 236 255 277 296 307 311 313 315 310 306 306 306 307 307 306 305 302 299 296 291 284 279 275 274 274 273 272 271 269 267 267 267 266 262 256 252 249 248 247 246 246 247 249 251 254 256 256 258 260 260 258 257 257 260 262 262 261 260 260 261 262 262 262 262 262 259 255 255 257 259 259 260 263 261 259 264 270 271
207 216 222 222 221 222 225 238 263 289 305 309 310 314 315 310 308 307 306 307 307 307 307 305 300 296 293 290 285 279 274 272 271 270 269 267 265 264 263 264 264 261 257 253 249 247 248 248 249 250 252 252 252 253 255 257 258 258 258 258 258 258 258 258 260 261 262 263 262 262 261 261 259 254 253 256 257 254 257 260 258 258 261 262 265
211 220 225 224 224 223 226 244 277 301 304 301 305 315 314 310 308 305 305 305 305 305 305 303 300 297 296 296 293 288 283 278 274 270 267 266 265 264 262 261 261 261 261 259 255 250 249 250 250 251 252 252 252 252 252 254 257 258 258 259 259 258 258 259 260 261 261 262 262 261 260 261 261 257 254 257 255 250 252 255 254 255 259 260 264
214 221 223 220 218 216 222 255 285 291 288 288 301 308 307 304 302 302 302 301 301 304 305 303 302 301 301 301 300 298 296 292 287 278 270 265 263 263 263 261 259 259 259 260 261 259 256 254 254 253 253 253 252 252 252 253 254 256 258 260 260 259 259 261 261 260 258 258 260 261 260 261 262 260 257 256 252 248 249 251 250 250 253 256 259
213 214 211 208 208 211 225 261 273 266 269 286 299 300 298 297 299 301 301 303 307 310 309 307 309 309 308 308 310 309 308 306 304 299 289 277 268 263 263 262 260 258 257 257 259 261 260 259 256 254 254 254 253 253 253 254 254 255 257 259 261 260 259 260 261 258 256 257 260 262 262 261 260 260 259 256 250 244 244 245 244 244 247 250 252
212 211 208 206 207 212 228 252 252 246 265 293 299 297 296 300 305 304 305 313 314 303 297 302 313 320 323 323 322 320 316 314 314 312 309 302 290 275 267 266 265 261 258 255 255 257 259 259 257 256 257 258 258 257 256 256 255 254 255 256 259 261 259 259 259 256 254 254 256 257 259 260 259 257 256 255 250 244 242 241 240 240 242 244 244
204 201 201 202 205 213 228 240 236 242 279 297 296 295 300 309 308 302 312 323 312 303 308 320 324 328 332 327 321 317 315 316 318 318 318 317 309 295 279 272 271 268 262 255 252 253 256 257 257 258 258 259 260 260 259 258 258 257 256 255 256 258 260 261 260 258 256 254 252 254 256 258 259 257 254 253 249 243 238 236 237 238 239 237 233
198 196 198 200 202 210 224 232 234 253 288 296 294 293 308 320 304 292 308 313 308 313 329 340 333 331 332 323 318 321 323 322 323 323 321 318 310 301 288 278 277 277 272 261 252 249 255 258 258 258 259 259 260 261 260 260 260 259 258 257 256 256 258 260 261 261 259 256 254 256 257 257 258 256 253 250 246 241 237 234 234 234 228 221 219
193 195 199 199 202 212 225 234 238 259 286 295 292 280 299 320 307 297 304 306 311 320 328 333 337 340 334 323 324 333 337 334 329 322 318 315 309 297 284 277 278 275 268 266 258 251 254 260 259 259 260 261 262 262 261 261 261 261 260 260 260 258 256 257 259 260 262 261 259 257 257 258 258 256 252 248 244 240 236 231 229 223 207 199 197
192 195 198 197 204 217 226 234 236 253 281 298 298 280 298 318 306 303 305 307 315 328 332 338 345 344 338 338 347 356 356 351 344 330 318 317 316 304 282 272 275 270 255 251 250 247 252 258 258 257 260 264 266 267 266 265 264 262 260 259 259 257 255 256 257 258 261 263 260 257 258 256 254 252 247 244 245 243 234 225 218 207 192 186 179
194 195 195 197 209 218 221 228 237 256 280 302 311 304 318 316 306 308 315 318 333 344 343 345 351 360 8 8 9 8 2 359 0 355 344 336 333 326 304 275 268 270 261 249 240 235 237 244 250 255 261 265 269 270 271 271 269 264 260 257 256 256 255 256 258 260 260 260 258 257 258 256 254 248 235 229 236 236 227 217 207 195 184 175 164
195 193 192 199 210 214 216 227 241 258 279 305 308 291 304 311 314 326 336 342 351 348 345 354 9 25 27 20 15 7 359 9 28 31 31 28 13 1 352 316 274 265 266 264 256 249 245 245 250 256 261 266 271 275 279 282 279 273 266 261 258 259 258 258 261 261 260 259 256 253 253 253 252 241 225 215 215 213 204 197 189 182 174 164 154
196 194 195 201 207 209 215 226 240 257 276 293 286 281 296 308 321 347 355 351 350 344 354 20 38 44 38 29 22 12 9 32 52 51 49 49 45 42 44 44 37 9 286 272 272 273 274 273 273 274 277 281 286 292 298 302 300 295 291 284 277 272 265 264 263 256 254 259 259 255 253 248 230 216 208 196 161 120 123 137 147 153 152 146 142
198 198 198 202 207 208 212 223 236 252 268 271 272 288 303 312 346 13 14 2 350 3 42 59 60 57 48 39 31 27 34 54 64 62 60 57 57 58 59 59 58 55 51 42 346 292 286 292 296 300 304 309 317 328 338 344 345 349 348 339 321 292 266 258 255 249 249 267 296 250 149 119 118 124 141 146 134 114 92 85 97 113 121 122 121
198 201 200 202 208 208 208 218 229 246 262 260 265 289 291 125 51 31 28 21 19 72 82 80 75 68 57 48 45 49 58 67 70 69 66 63 66 68 66 67 68 66 67 69 69 70 71 65 56 46 37 41 49 48 45 42 40 43 47 50 60 105 184 189 171 148 123 104 99 100 103 108 108 101 96 100 103 102 98 93 91 92 97 105 110
198 200 202 204 206 206 209 217 226 241 251 247 247 250 213 154 53 36 33 29 46 95 95 89 85 76 63 58 61 67 72 74 73 75 78 78 77 75 72 73 74 73 73 74 75 76 79 79 78 75 73 78 79 74 68 66 69 77 82 83 84 88 97 109 116 117 118 117 114 110 109 109 106 103 102 100 98 99 102 103 100 96 99 106 110
198 198 200 203 201 203 210 220 230 238 234 226 225 220 198 147 51 37 33 29 38 93 105 100 92 83 73 71 78 81 82 84 85 88 90 87 83 79 76 76 77 77 77 76 77 78 79 81 84 84 82 80 79 77 77 80 85 88 87 84 86 91 98 107 117 123 123 120 116 113 111 110 109 109 109 107 105 104 104 103 100 97 99 104 105
197 197 199 199 199 204 215 225 229 223 211 208 207 200 180 140 54 30 28 24 28 78 107 104 98 94 91 92 94 95 95 97 97 98 97 95 92 88 83 79 78 79 79 79 79 80 81 81 83 84 83 82 83 86 91 93 91 88 84 84 93 103 109 115 121 125 121 116 114 113 111 109 108 108 108 107 106 106 107 107 107 105 103 105 106
Height
1521 1522 1524 1526 1528 1529 1530 1531 1533 1534 1535 1537 1538 1538 1539 1539 1541 1543 1544 1545 1545 1546 1547 1548 1549 1551 1552 1552 1553 1555 1556 1557 1558 1559 1560 1561 1563 1564 1565 1566 1568 1569 1570 1571 1572 1574 1575 1576 1577 1578 1578 1579 1580 1580 1580 1580 1580 1580 1580 1580 1580 1580 1579 1579 1579 1578 1577 1576 1576 1576 1576 1575 1574 1573 1572 1571 1570 1569 1568 1567 1566 1565 1564 1563 1561
1521 1522 1523 1524 1526 1528 1529 1530 1531 1533 1534 1535 1536 1537 1538 1539 1540 1542 1543 1544 1544 1545 1546 1547 1548 1550 1551 1552 1553 1554 1555 1556 1557 1558 1559 1560 1562 1563 1564 1565 1566 1568 1569 1570 1572 1573 1574 1575 1576 1577 1578 1579 1579 1580 1580 1580 1580 1580 1580 1580 1580 1579 1579 1579 1578 1577 1577 1576 1575 1575 1575 1574 1573 1572 1571 1570 1569 1569 1568 1567 1566 1565 1564 1563 1560
1520 1521 1522 1523 1525 1527 1528 1529 1530 1531 1533 1534 1535 1536 1537 1538 1539 1541 1542 1543 1543 1544 1545 1546 1547 1549 1550 1551 1552 1553 1554 1555 1556 1557 1558 1559 1560 1561 1562 1564 1565 1567 1568 1569 1571 1572 1573 1574 1575 1576 1577 1578 1579 1579 1580 1580 1580 1580 1579 1579 1579 1579 1579 1579 1578 1577 1576 1576 1575 1574 1574 1573 1572 1571 1571 1570 1569 1569 1568 1567 1567 1565 1564 1563 1560
1519 1520 1521 1522 1524 1525 1526 1527 1528 1530 1531 1532 1534 1535 1536 1537 1538 1540 1541 1542 1542 1543 1544 1545 1547 1548 1549 1550 1551 1552 1553 1553 1554 1555 1556 1557 1558 1559 1561 1562 1564 1565 1567 1568 1569 1571 1572 1573 1574 1575 1576 1577 1578 1579 1579 1579 1579 1579 1579 1579 1579 1579 1578 1578 1577 1577 1576 1576 1575 1575 1574 1572 1571 1571 1570 1570 1569 1569 1568 1567 1566 1565 1564 1563 1561
1518 1519 1520 1521 1522 1524 1525 1526 1527 1528 1530 1531 1532 1533 1534 1536 1537 1538 1539 1540 1541 1542 1543 1544 1545 1547 1547 1548 1549 1550 1551 1551 1552 1553 1554 1555 1556 1558 1559 1561 1562 1564 1565 1567 1568 1569 1571 1572 1573 1574 1575 1576 1577 1578 1578 1579 1579 1579 1579 1579 1579 1578 1578 1578 1577 1577 1576 1576 1575 1575 1574 1573 1572 1571 1569 1569 1569 1569 1568 1567 1566 1565 1564 1563 1562
1517 1518 1519 1520 1521 1523 1524 1525 1526 1527 1528 1529 1531 1532 1533 1535 1536 1537 1538 1539 1540 1541 1542 1543 1544 1545 1546 1547 1548 1548 1549 1550 1550 1551 1552 1553 1554 1556 1558 1559 1561 1562 1564 1565 1567 1568 1569 1571 1572 1573 1574 1575 1576 1577 1577 1578 1578 1579 1579 1578 1578 1578 1577 1577 1577 1576 1576 1575 1575 1575 1574 1573 1572 1571 1570 1568 1568 1568 1568 1567 1566 1565 1564 1563 1562
1516 1517 1518 1519 1520 1522 1523 1524 1525 1525 1527 1528 1530 1531 1532 1533 1534 1535 1537 1537 1539 1540 1541 1542 1542 1543 1544 1545 1546 1547 1548 1549 1550 1551 1552 1552 1553 1554 1556 1557 1559 1561 1562 1564 1565 1566 1568 1569 1571 1572 1573 1574 1575 1576 1576 1577 1578 1578 1578 1578 1578 1578 1577 1577 1576 1576 1575 1575 1574 1574 1573 1573 1572 1571 1571 1569 1567 1567 1567 1566 1565 1564 1563 1562 1561
1515 1516 1516 1518 1519 1521 1522 1523 1524 1524 1526 1527 1528 1529 1530 1531 1533 1534 1535 1536 1537 1538 1539 1540 1541 1542 1543 1544 1545 1545 1546 1548 1549 1550 1550 1551 1552 1553 1554 1556 1557 1559 1560 1562 1564 1565 1566 1568 1569 1570 1571 1572 1573 1574 1575 1576 1577 1577 1577 1577 1577 1577 1576 1576 1576 1575 1575 1574 1574 1573 1573 1572 1572 1571 1570 1570 1568 1567 1566 1565 1565 1564 1563 1562 1561
1513 1514 1515 1517 1518 1519 1521 1522 1523 1524 1525 1526 1527 1528 1529 1530 1531 1532 1533 1534 1536 1537 1537 1538 1539 1540 1541 1542 1543 1544 1545 1546 1547 1548 1549 1549 1550 1551 1553 1554 1555 1557 1559 1560 1562 1563 1565 1566 1567 1568 1569 1571 1572 1573 1574 1575 1575 1576 1576 1576 1576 1576 1576 1575 1575 1574 1574 1573 1573 1572 1572 1571 1571 1570 1570 1569 1569 1567 1566 1564 1564 1563 1562 1562 1561
1512 1513 1514 1515 1517 1518 1520 1521 1522 1523 1524 1526 1526 1527 1527 1528 1529 1530 1532 1533 1534 1535 1536 1536 1537 1538 1539 1540 1541 1542 1543 1544 1545 1546 1547 1547 1548 1550 1551 1552 1554 1555 1557 1559 1560 1562 1563 1564 1566 1567 1568 1569 1570 1571 1572 1573 1574 1575 1575 1575 1575 1575 1575 1575 1574 1574 1573 1573 1572 1571 1571 1570 1569 1569 1569 1569 1568 1567 1566 1565 1564 1563 1562 1562 1561
1510 1512 1513 1515 1516 1518 1519 1520 1521 1522 1523 1525 1525 1526 1526 1526 1528 1528 1530 1533 1534 1534 1535 1535 1535 1536 1537 1539 1540 1541 1542 1543 1543 1544 1545 1545 1546 1548 1549 1551 1552 1554 1556 1557 1559 1560 1562 1563 1564 1565 1566 1567 1568 1570 1571 1572 1573 1573 1574 1574 1574 1574 1574 1574 1573 1573 1573 1572 1572 1571 1570 1569 1568 1568 1568 1568 1568 1567 1566 1565 1564 1564 1563 1562 1561
1510 1511 1512 1514 1515 1517 1518 1519 1520 1521 1522 1523 1524 1525 1525 1526 1527 1527 1528 1533 1535 1534 1534 1534 1534 1534 1535 1537 1538 1539 1540 1541 1542 1542 1543 1544 1545 1547 1548 1549 1551 1553 1554 1556 1557 1559 1560 1562 1563 1564 1565 1566 1567 1568 1569 1570 1571 1572 1572 1572 1572 1573 1573 1573 1573 1572 1572 1572 1571 1570 1569 1569 1568 1568 1567 1567 1567 1566 1565 1564 1564 1563 1563 1562 1562
1509 1510 1511 1513 1514 1516 1517 1518 1519 1520 1520 1520 1521 1523 1524 1524 1526 1526 1526 1531 1534 1533 1533 1533 1533 1533 1534 1535 1536 1537 1538 1539 1540 1541 1542 1543 1544 1545 1546 1548 1549 1551 1553 1554 1556 1558 1559 1560 1561 1562 1563 1564 1566 1567 1568 1569 1570 1570 1570 1570 1571 1571 1572 1572 1571 1571 1571 1571 1570 1570 1569 1568 1567 1567 1566 1566 1566 1565 1565 1564 1563 1563 1563 1562 1562
1509 1510 1511 1512 1514 1515 1516 1517 1517 1518 1518 1519 1520 1521 1522 1522 1524 1525 1525 1528 1531 1532 1532 1532 1532 1532 1532 1533 1534 1535 1536 1537 1538 1539 1540 1541 1542 1543 1545 1546 1548 1549 1551 1553 1555 1557 1558 1559 1560 1561 1562 1563 1564 1565 1566 1567 1568 1568 1569 1569 1569 1570 1570 1570 1570 1570 1570 1570 1569 1569 1568 1568 1567 1566 1566 1565 1565 1565 1564 1563 1563 1563 1562 1562 1561
1508 1510 1510 1512 1513 1514 1516 1516 1516 1517 1518 1519 1519 1519 1520 1521 1522 1523 1524 1525 1527 1530 1531 1530 1530 1530 1531 1532 1533 1534 1534 1535 1537 1538 1539 1540 1541 1542 1543 1544 1546 1548 1550 1552 1554 1555 1556 1557 1558 1560 1561 1562 1562 1564 1565 1565 1566 1566 1567 1567 1567 1568 1568 1568 1568 1568 1568 1568 1568 1567 1567 1566 1566 1566 1566 1565 1565 1564 1564 1563 1563 1562 1562 1561 1561
1508 1509 1510 1511 1513 1514 1515 1516 1516 1517 1517 1518 1518 1518 1519 1520 1521 1522 1523 1524 1525 1528 1528 1528 1528 1528 1529 1530 1531 1532 1533 1534 1535 1536 1537 1538 1539 1540 1542 1543 1544 1546 1548 1550 1552 1553 1554 1555 1557 1558 1559 1560 1561 1562 1563 1564 1564 1565 1565 1565 1566 1566 1566 1566 1567 1566 1566 1566 1566 1566 1565 1565 1566 1565 1565 1565 1564 1564 1563 1563 1563 1562 1561 1561 1560
1508 1509 1510 1511 1512 1514 1515 1516 1516 1517 1517 1518 1518 1518 1518 1519 1520 1521 1522 1523 1524 1525 1526 1526 1526 1526 1527 1528 1530 1531 1531 1532 1533 1534 1535 1536 1537 1538 1540 1541 1543 1544 1546 1548 1550 1551 1552 1554 1555 1556 1557 1558 1559 1560 1561 1562 1563 1563 1563 1563 1564 1565 1565 1565 1565 1565 1565 1565 1564 1564 1564 1564 1565 1564 1564 1564 1563 1563 1563 1563 1562 1562 1561 1561 1560
1508 1509 1510 1512 1512 1514 1514 1515 1517 1517 1518 1518 1518 1518 1518 1518 1519 1520 1521 1521 1522 1523 1523 1524 1524 1525 1526 1527 1529 1530 1530 1531 1532 1533 1534 1535 1536 1537 1538 1540 1541 1543 1544 1546 1548 1549 1550 1552 1552 1554 1555 1556 1557 1558 1560 1560 1561 1561 1561 1562 1562 1563 1563 1563 1563 1563 1563 1563 1563 1563 1563 1563 1563 1563 1563 1563 1563 1563 1562 1562 1562 1561 1561 1560 1560
1508 1509 1510 1511 1512 1514 1514 1515 1516 1516 1517 1517 1517 1517 1517 1518 1518 1519 1520 1520 1520 1521 1521 1522 1523 1524 1525 1526 1528 1529 1529 1530 1531 1532 1533 1534 1535 1536 1537 1538 1539 1541 1543 1544 1545 1547 1548 1550 1550 1552 1553 1554 1555 1557 1558 1558 1559 1559 1559 1560 1561 1561 1562 1562 1562 1562 1562 1562 1562 1562 1562 1562 1562 1562 1562 1562 1562 1562 1562 1561 1561 1560 1560 1560 1559
1507 1508 1510 1511 1512 1513 1514 1515 1515 1515 1516 1516 1516 1517 1516 1517 1518 1518 1519 1519 1519 1520 1520 1521 1522 1523 1525 1525 1527 1527 1528 1529 1530 1530 1531 1532 1533 1534 1535 1537 1538 1540 1541 1542 1544 1545 1546 1548 1549 1550 1551 1552 1553 1555 1556 1556 1557 1557 1558 1558 1559 1560 1560 1560 1560 1560 1560 1560 1560 1560 1560 1560 1560 1560 1560 1560 1560 1560 1560 1560 1560 1559 1559 1559 1558
1507 1508 1510 1511 1512 1513 1513 1514 1515 1515 1516 1516 1516 1516 1516 1517 1518 1518 1518 1518 1518 1519 1520 1521 1521 1522 1523 1524 1525 1526 1527 1528 1528 1529 1530 1531 1532 1533 1534 1535 1536 1538 1539 1541 1542 1543 1544 1546 1547 1548 1549 1550 1551 1553 1554 1554 1555 1556 1556 1557 1558 1558 1558 1558 1558 1559 1559 1559 1559 1559 1559 1559 1559 1559 1559 1559 1559 1559 1559 1559 1558 1558 1558 1557 1557
1507 1508 1510 1511 1511 1513 1513 1514 1514 1514 1515 1515 1516 1516 1517 1517 1518 1517 1518 1518 1518 1519 1519 1520 1520 1521 1522 1522 1524 1525 1525 1526 1527 1528 1529 1530 1531 1532 1533 1534 1534 1536 1537 1539 1540 1542 1543 1544 1545 1546 1547 1548 1549 1550 1552 1553 1553 1554 1555 1556 1556 1557 1557 1557 1557 1557 1557 1558 1558 1557 1558 1558 1558 1557 1557 1557 1557 1557 1557 1557 1557 1556 1556 1556 1556
1508 1508 1509 1511 1511 1513 1513 1513 1514 1514 1514 1515 1515 1516 1517 1517 1517 1517 1517 1518 1518 1518 1519 1519 1519 1520 1520 1521 1522 1523 1523 1524 1525 1526 1528 1529 1530 1531 1532 1533 1533 1534 1535 1536 1538 1540 1541 1542 1543 1544 1545 1546 1547 1548 1550 1551 1551 1552 1553 1554 1555 1555 1555 1555 1555 1556 1556 1556 1556 1556 1556 1557 1556 1556 1556 1556 1556 1556 1556 1555 1555 1555 1555 1554 1554
1507 1508 1509 1510 1511 1512 1513 1513 1514 1514 1515 1515 1515 1516 1516 1516 1517 1517 1517 1517 1517 1518 1518 1518 1518 1519 1519 1519 1520 1521 1522 1523 1524 1525 1526 1527 1528 1529 1530 1531 1532 1533 1533 1534 1536 1537 1539 1540 1541 1542 1543 1544 1545 1546 1547 1548 1549 1550 1551 1552 1553 1553 1554 1554 1554 1555 1555 1555 1555 1555 1555 1555 1555 1555 1555 1555 1555 1555 1554 1554 1554 1554 1553 1553 1552
1507 1508 1509 1510 1511 1512 1512 1513 1514 1514 1514 1515 1515 1515 1515 1515 1516 1516 1516 1516 1516 1517 1517 1517 1517 1518 1518 1518 1518 1519 1520 1521 1522 1523 1524 1525 1526 1527 1527 1528 1530 1531 1532 1533 1534 1535 1536 1537 1538 1540 1541 1542 1543 1544 1545 1546 1547 1548 1549 1550 1550 1551 1552 1552 1553 1553 1553 1554 1554 1554 1554 1554 1554 1554 1554 1554 1553 1553 1553 1553 1553 1553 1552 1552 1551
1506 1507 1508 1510 1511 1512 1512 1513 1513 1514 1514 1514 1514 1515 1514 1515 1515 1515 1515 1515 1515 1515 1515 1516 1516 1516 1517 1517 1517 1517 1518 1519 1520 1521 1522 1523 1523 1524 1525 1526 1527 1528 1530 1530 1531 1532 1533 1534 1536 1537 1539 1540 1541 1542 1543 1544 1545 1546 1546 1547 1548 1548 1549 1550 1550 1551 1551 1552 1552 1552 1552 1552 1552 1552 1552 1552 1552 1552 1552 1552 1552 1551 1551 1551 1550
1506 1507 1508 1509 1510 1511 1512 1513 1513 1514 1514 1514 1514 1514 1514 1514 1514 1513 1513 1513 1513 1514 1514 1514 1515 1515 1515 1515 1515 1515 1516 1516 1517 1518 1519 1520 1521 1522 1522 1523 1524 1526 1527 1528 1529 1530 1531 1532 1533 1535 1536 1537 1539 1540 1541 1542 1543 1543 1544 1545 1546 1546 1547 1547 1548 1549 1549 1549 1550 1550 1550 1550 1550 1550 1550 1550 1550 1549 1549 1550 1550 1550 1550 1549 1549
1505 1507 1508 1509 1510 1511 1512 1512 1513 1513 1514 1514 1514 1514 1513 1513 1513 1513 1512 1512 1512 1512 1512 1513 1513 1513 1514 1514 1514 1514 1514 1514 1515 1515 1517 1518 1519 1520 1520 1521 1522 1523 1524 1525 1527 1528 1529 1530 1531 1532 1533 1535 1536 1537 1538 1539 1540 1541 1542 1543 1543 1544 1544 1545 1546 1546 1547 1547 1547 1548 1548 1548 1548 1548 1548 1548 1548 1548 1548 1548 1548 1548 1548 1548 1547
1505 1506 1507 1509 1510 1511 1511 1512 1513 1513 1513 1513 1513 1513 1513 1512 1512 1512 1512 1511 1511 1511 1511 1511 1511 1512 1512 1512 1512 1512 1512 1512 1512 1513 1514 1516 1516 1517 1518 1519 1520 1521 1522 1523 1524 1525 1526 1528 1529 1530 1531 1532 1533 1534 1535 1537 1538 1539 1540 1540 1541 1542 1542 1543 1544 1544 1545 1545 1545 1546 1546 1546 1546 1547 1547 1547 1546 1546 1546 1546 1546 1546 1546 1546 1546
1503 1505 1507 1508 1509 1510 1511 1512 1512 1512 1513 1512 1512 1512 1511 1511 1511 1511 1511 1510 1510 1510 1510 1510 1510 1510 1510 1510 1510 1510 1510 1510 1511 1511 1513 1513 1514 1515 1516 1517 1518 1519 1520 1521 1522 1523 1524 1525 1526 1527 1529 1530 1530 1531 1533 1534 1535 1536 1537 1538 1538 1539 1540 1540 1541 1541 1542 1543 1543 1543 1544 1544 1545 1545 1545 1545 1545 1545 1545 1544 1544 1544 1544 1544 1544
1502 1504 1506 1507 1509 1509 1510 1511 1511 1512 1512 1512 1511 1511 1510 1510 1510 1510 1509 1509 1509 1509 1509 1508 1508 1508 1508 1508 1508 1508 1508 1508 1509 1510 1511 1511 1512 1513 1513 1514 1515 1516 1518 1519 1520 1520 1521 1523 1524 1525 1526 1527 1528 1529 1530 1532 1533 1533 1534 1535 1535 1536 1537 1537 1538 1538 1539 1540 1541 1541 1541 1542 1542 1542 1543 1543 1543 1543 1543 1543 1543 1542 1542 1542 1542
1502 1504 1505 1506 1507 1508 1509 1510 1511 1511 1511 1511 1510 1509 1509 1509 1509 1509 1508 1508 1508 1508 1508 1507 1507 1507 1507 1506 1506 1506 1506 1506 1507 1508 1508 1509 1509 1510 1511 1512 1513 1514 1515 1516 1517 1518 1519 1520 1521 1522 1523 1524 1525 1527 1528 1529 1530 1531 1532 1532 1533 1533 1534 1534 1535 1536 1536 1537 1538 1539 1539 1539 1540 1540 1540 1540 1540 1541 1541 1541 1541 1541 1541 1541 1541
1501 1502 1504 1505 1506 1507 1509 1509 1510 1510 1510 1509 1509 1508 1508 1508 1508 1508 1507 1507 1507 1507 1506 1506 1506 1506 1505 1505 1505 1504 1504 1504 1504 1505 1506 1506 1507 1507 1508 1509 1510 1511 1512 1513 1514 1515 1516 1517 1518 1519 1520 1521 1523 1524 1525 1526 1527 1528 1529 1529 1530 1530 1531 1531 1532 1533 1534 1534 1535 1536 1536 1537 1537 1538 1538 1537 1537 1538 1539 1538 1538 1539 1539 1539 1539
1500 1501 1503 1504 1506 1507 1508 1508 1509 1509 1509 1508 1508 1508 1507 1507 1507 1506 1506 1505 1505 1505 1505 1504 1504 1504 1503 1503 1503 1502 1502 1502 1502 1502 1503 1503 1504 1505 1506 1506 1507 1508 1509 1509 1511 1512 1513 1514 1515 1516 1517 1519 1520 1521 1522 1523 1524 1525 1526 1526 1526 1526 1527 1528 1529 1530 1530 1531 1532 1533 1533 1534 1534 1534 1534 1534 1535 1535 1536 1536 1536 1536 1537 1537 1537
1498 1500 1502 1503 1505 1506 1507 1508 1508 1508 1508 1508 1507 1507 1507 1506 1506 1505 1505 1504 1504 1503 1503 1502 1502 1501 1500 1500 1500 1499 1499 1500 1499 1500 1500 1501 1502 1502 1503 1504 1504 1505 1505 1506 1507 1508 1509 1511 1512 1513 1514 1515 1517 1518 1519 1519 1520 1521 1522 1523 1523 1523 1523 1524 1525 1526 1527 1528 1529 1529 1530 1530 1530 1530 1530 1531 1532 1532 1533 1533 1533 1534 1534 1535 1535
1497 1499 1501 1503 1504 1505 1506 1507 1507 1507 1507 1507 1507 1506 1506 1505 1505 1504 1504 1503 1502 1502 1501 1500 1499 1499 1498 1498 1497 1497 1496 1497 1497 1497 1498 1498 1499 1499 1500 1501 1501 1502 1502 1503 1504 1505 1506 1507 1508 1510 1510 1511 1513 1514 1515 1516 1517 1518 1519 1520 1520 1520 1520 1521 1522 1523 1524 1525 1525 1526 1526 1526 1525 1526 1527 1528 1528 1529 1530 1530 1531 1531 1532 1532 1533
1497 1499 1501 1502 1504 1505 1506 1506 1506 1506 1506 1506 1506 1505 1505 1504 1504 1503 1503 1502 1501 1500 1500 1499 1498 1497 1497 1496 1496 1495 1494 1494 1494 1494 1495 1495 1496 1496 1496 1497 1498 1498 1499 1500 1500 1502 1503 1504 1505 1506 1507 1508 1509 1510 1511 1513 1514 1515 1515 1516 1517 1517 1517 1518 1519 1520 1520 1521 1522 1522 1523 1523 1522 1522 1523 1524 1525 1526 1527 1527 1528 1529 1529 1530 1531
1496 1498 1500 1501 1503 1504 1505 1506 1505 1506 1506 1505 1505 1504 1504 1503 1503 1502 1502 1501 1500 1500 1499 1498 1497 1496 1496 1495 1495 1494 1493 1492 1492 1492 1492 1492 1492 1493 1493 1493 1494 1495 1495 1496 1497 1498 1500 1501 1502 1503 1503 1504 1505 1507 1508 1509 1510 1511 1512 1513 1513 1514 1514 1514 1515 1516 1517 1517 1518 1519 1519 1519 1518 1518 1519 1520 1521 1522 1523 1523 1524 1525 1527 1528 1529
1495 1497 1499 1500 1502 1503 1504 1505 1505 1505 1505 1505 1504 1504 1503 1502 1502 1501 1501 1500 1500 1499 1498 1497 1497 1496 1495 1494 1494 1493 1492 1491 1491 1490 1490 1489 1489 1489 1490 1490 1490 1491 1492 1493 1495 1496 1497 1497 1498 1499 1500 1501 1502 1503 1504 1505 1506 1507 1508 1509 1509 1510 1510 1511 1511 1512 1513 1514 1515 1515 1515 1515 1515 1515 1516 1517 1517 1517 1518 1519 1521 1523 1525 1526 1527
1494 1496 1498 1499 1501 1502 1503 1504 1504 1504 1504 1504 1503 1503 1502 1502 1501 1501 1500 1500 1500 1499 1497 1497 1496 1495 1494 1494 1493 1492 1491 1490 1489 1489 1489 1488 1488 1487 1487 1487 1487 1488 1489 1490 1492 1493 1494 1494 1495 1496 1497 1498 1498 1499 1500 1501 1502 1503 1504 1504 1505 1506 1506 1507 1507 1508 1508 1509 1511 1511 1511 1511 1511 1511 1512 1513 1513 1513 1514 1516 1518 1520 1522 1524 1525
1494 1495 1497 1498 1500 1501 1502 1502 1503 1503 1503 1503 1502 1502 1501 1501 1501 1500 1500 1499 1499 1498 1497 1496 1495 1494 1494 1493 1492 1491 1490 1489 1488 1488 1488 1487 1487 1486 1486 1486 1486 1486 1487 1488 1489 1490 1491 1492 1493 1493 1494 1494 1495 1495 1496 1497 1497 1499 1499 1500 1501 1503 1503 1503 1504 1504 1503 1504 1507 1508 1507 1506 1507 1508 1511 1512 1511 1510 1511 1514 1515 1517 1519 1521 1522
1493 1494 1496 1498 1499 1500 1501 1501 1502 1502 1502 1502 1501 1501 1501 1501 1500 1500 1500 1499 1498 1497 1496 1496 1495 1494 1493 1492 1491 1490 1489 1488 1488 1487 1486 1486 1486 1485 1485 1485 1485 1485 1486 1486 1487 1488 1489 1490 1490 1490 1491 1491 1491 1492 1493 1493 1494 1495 1495 1496 1497 1498 1499 1499 1499 1499 1499 1500 1502 1502 1501 1501 1504 1506 1509 1510 1509 1507 1508 1510 1512 1513 1515 1517 1519
1491 1493 1495 1497 1498 1499 1500 1500 1501 1501 1501 1501 1501 1501 1501 1501 1500 1500 1499 1499 1498 1497 1496 1495 1494 1493 1493 1492 1491 1490 1489 1488 1487 1486 1486 1485 1485 1484 1484 1484 1484 1484 1484 1485 1485 1486 1487 1488 1488 1488 1488 1488 1489 1489 1489 1490 1490 1491 1491 1492 1492 1492 1493 1494 1494 1495 1495 1496 1496 1495 1495 1496 1500 1503 1504 1505 1504 1503 1503 1504 1505 1508 1511 1513 1515
1490 1493 1494 1496 1497 1498 1499 1499 1500 1500 1501 1500 1500 1500 1500 1500 1500 1499 1499 1498 1497 1496 1496 1495 1494 1493 1492 1492 1491 1490 1489 1488 1487 1486 1485 1485 1485 1484 1483 1483 1483 1483 1483 1483 1484 1484 1485 1485 1486 1486 1486 1487 1487 1486 1486 1486 1487 1487 1488 1488 1488 1488 1489 1490 1491 1491 1491 1491 1491 1491 1491 1493 1495 1498 1499 1501 1500 1496 1493 1494 1496 1498 1503 1507 1509
1490 1492 1493 1495 1496 1497 1498 1499 1499 1500 1500 1500 1500 1500 1500 1500 1500 1499 1498 1498 1497 1497 1496 1495 1494 1493 1493 1492 1491 1491 1490 1489 1488 1487 1486 1486 1485 1484 1483 1483 1482 1482 1482 1483 1483 1483 1483 1484 1484 1485 1485 1485 1484 1484 1484 1484 1484 1484 1484 1484 1485 1485 1486 1488 1489 1489 1488 1488 1487 1487 1488 1488 1490 1491 1492 1495 1499 1496 1489 1487 1490 1492 1494 1498 1501
1489 1491 1492 1494 1495 1496 1497 1498 1498 1499 1500 1500 1500 1500 1500 1500 1500 1499 1498 1498 1497 1497 1496 1495 1494 1494 1493 1492 1492 1491 1490 1489 1489 1488 1488 1487 1486 1485 1484 1483 1482 1482 1482 1482 1482 1483 1483 1483 1483 1483 1484 1483 1483 1483 1483 1483 1483 1482 1482 1482 1483 1484 1485 1486 1487 1487 1487 1487 1487 1486 1485 1486 1488 1489 1485 1484 1492 1500 1498 1495 1495 1496 1497 1496 1497
1488 1490 1491 1492 1493 1495 1496 1497 1497 1498 1499 1499 1500 1500 1500 1500 1500 1499 1499 1498 1497 1497 1496 1495 1495 1494 1494 1493 1493 1492 1491 1491 1490 1490 1489 1489 1488 1486 1485 1484 1483 1482 1482 1482 1482 1482 1483 1483 1483 1483 1483 1483 1483 1483 1483 1483 1482 1482 1482 1482 1482 1483 1483 1484 1486 1486 1487 1488 1489 1488 1487 1487 1491 1496 1492 1485 1488 1498 1505 1508 1511 1513 1512 1508 1504
1487 1489 1490 1492 1493 1494 1495 1496 1497 1498 1498 1499 1499 1500 1500 1500 1500 1500 1499 1498 1498 1497 1496 1496 1495 1495 1494 1494 1494 1493 1493 1493 1492 1492 1491 1490 1489 1488 1487 1485 1484 1483 1483 1483 1483 1483 1483 1483 1483 1484 1484 1484 1484 1484 1484 1484 1483 1483 1483 1482 1482 1482 1483 1484 1486 1487 1489 1491 1491 1490 1491 1492 1494 1498 1499 1496 1494 1497 1504 1512 1519 1523 1524 1522 1517
1487 1488 1490 1491 1492 1494 1495 1496 1497 1497 1497 1498 1499 1500 1500 1501 1500 1500 1499 1499 1498 1497 1497 1496 1496 1495 1495 1495 1495 1495 1495 1494 1494 1493 1493 1492 1491 1490 1489 1488 1486 1486 1485 1485 1485 1484 1484 1485 1485 1485 1486 1486 1486 1486 1486 1486 1486 1486 1485 1485 1485 1485 1486 1487 1488 1490 1492 1493 1493 1493 1494 1496 1498 1499 1501 1501 1500 1501 1505 1512 1517 1520 1524 1526 1526
1486 1488 1489 1491 1492 1493 1494 1495 1496 1496 1496 1497 1498 1500 1501 1501 1501 1500 1500 1499 1499 1498 1497 1497 1497 1496 1497 1497 1496 1496 1496 1496 1496 1495 1495 1494 1493 1492 1492 1490 1489 1489 1489 1489 1488 1488 1488 1488 1487 1487 1488 1488 1487 1488 1489 1490 1490 1490 1491 1490 1490 1490 1490 1491 1493 1494 1495 1496 1496 1496 1497 1498 1500 1501 1503 1503 1503 1505 1508 1513 1517 1520 1523 1526 1528
1486 1487 1489 1490 1491 1492 1493 1494 1495 1496 1496 1496 1498 1499 1501 1501 1501 1501 1500 1500 1500 1499 1498 1498 1498 1498 1498 1498 1498 1498 1498 1498 1498 1498 1497 1496 1495 1495 1494 1494 1493 1493 1493 1493 1492 1492 1492 1492 1492 1491 1490 1491 1491 1493 1494 1495 1495 1496 1496 1496 1496 1496 1496 1496 1498 1499 1499 1499 1499 1500 1501 1502 1503 1504 1505 1505 1506 1508 1511 1515 1518 1522 1525 1528 1530